EW4556 Weather Reports


time (UTC)temp
C
wind
direction
speed
KPH
gust
KPH
rain 1hr
cm
rain 24hr
cm
rain mn
cm
humidity
%
barometer
mb
20260506113115 16 138 0.0 1.6 0.00 0.00 0.00 76 1004.7
20260506111546 16 235 1.6 17.7 0.00 0.00 0.00 75 1004.7
20260506110050 16 155 0.0 0.0 0.00 0.00 0.00 75 1004.4
20260506104523 16 57 0.0 0.0 0.00 0.00 0.00 74 1004.4
20260506103032 16 132 0.0 1.6 0.00 0.00 0.00 73 1004.3
20260506101508 16 225 0.0 1.6 0.00 0.00 0.00 72 1004.4
20260506100009 16 171 0.0 0.0 0.00 0.00 0.00 71 1004.4
20260506100007 16 171 0.0 0.0 0.00 0.00 0.00 72 1004.4
20260506094505 16 238 0.0 0.0 0.00 0.00 0.00 70 1004.1
20260506093014 16 219 0.0 0.0 0.00 0.00 0.00 70 1004.3
20260506091502 16 161 0.0 0.0 0.00 0.00 0.00 69 1004.3
20260506090105 16 169 0.0 0.0 0.00 0.00 0.00 68 1004.5
20260506084634 16 222 0.0 0.0 0.00 0.00 0.00 67 1004.5
20260506083057 17 222 0.0 0.0 0.00 0.00 0.00 67 1004.5
20260506081557 17 222 0.0 0.0 0.00 0.00 0.00 65 1004.7
20260506073049 17 248 0.0 0.0 0.00 0.00 0.00 63 1004.9
20260506071546 17 200 0.0 0.0 0.00 0.00 0.00 62 1004.8
20260506061536 18 217 0.0 1.6 0.00 0.00 0.00 60 1005.3
20260506044534 18 248 0.0 0.0 0.00 0.00 0.00 55 1005.8
20260506043025 19 248 0.0 0.0 0.00 0.00 0.00 54 1005.8
20260506041522 19 219 0.0 0.0 0.00 0.00 0.00 54 1005.8
20260506040025 19 248 0.0 0.0 0.00 0.00 0.00 54 1005.8
20260506034521 18 212 0.0 0.0 0.00 0.00 0.00 53 1005.8
20260506033017 19 134 0.0 0.0 0.00 0.00 0.00 52 1005.7
20260506031513 20 194 0.0 0.0 0.00 0.00 0.00 50 1005.6
20260506030010 20 260 0.0 0.0 0.00 0.00 0.00 49 1005.6
20260506024508 20 210 0.0 1.6 0.00 0.00 0.00 49 1005.7
20260506023006 21 209 0.0 14.5 0.00 0.00 0.00 48 1005.7
20260506021600 21 210 0.0 14.5 0.00 0.00 0.00 47 1005.7
20260506020031 21 210 0.0 8.0 0.00 0.00 0.00 47 1005.9
20260506014526 21 197 0.0 14.5 0.00 0.00 0.00 46 1005.6
20260506013031 21 209 0.0 11.3 0.00 0.00 0.00 46 1005.4
20260506011524 21 242 0.0 4.8 0.00 0.00 0.00 46 1005.2
20260506010021 21 200 0.0 3.2 0.00 0.00 0.00 46 1005.0
20260506004549 21 216 0.0 11.3 0.00 0.00 0.00 47 1004.8
20260506003047 22 192 0.0 8.0 0.00 0.00 0.00 45 1004.7
20260506001514 22 199 0.0 1.6 0.00 0.00 0.00 44 1004.6
20260506000014 22 207 0.0 3.2 0.00 0.00 0.00 43 1004.5
20260505234541 22 174 0.0 3.2 0.00 0.00 0.00 42 1004.5
20260505233039 23 306 0.0 14.5 0.00 0.00 0.00 41 1004.4
20260505231512 23 214 0.0 11.3 0.00 0.00 0.00 40 1004.3
20260505230011 23 238 1.6 27.4 0.00 0.00 0.00 41 1004.2
20260505224505 23 217 0.0 12.9 0.00 0.00 0.00 41 1004.2
20260505223003 23 277 0.0 1.6 0.00 0.00 0.00 43 1004.1
20260505221604 23 247 0.0 3.2 0.00 0.00 0.00 39 1003.9
20260505220100 24 233 0.0 8.0 0.00 0.00 0.00 38 1003.9
20260505211532 24 164 0.0 11.3 0.00 0.00 0.00 35 1003.3
20260505210029 24 217 0.0 19.3 0.00 0.00 0.00 35 1003.4
20260505204554 25 175 3.2 17.7 0.00 0.00 0.00 36 1003.3
20260505203110 25 263 1.6 16.1 0.00 0.00 0.00 33 1003.0
20260505201549 26 211 3.2 14.5 0.00 0.00 0.00 34 1003.1
20260505200144 27 236 3.2 25.7 0.00 0.00 0.00 33 1003.1
20260505194540 26 219 1.6 16.1 0.00 0.00 0.00 33 1003.4
20260505190035 26 227 1.6 19.3 0.00 0.00 0.00 37 1004.0
20260505184559 27 241 1.6 27.4 0.00 0.00 0.00 35 1004.2
20260505183056 26 221 0.0 29.0 0.00 0.00 0.00 36 1004.3
20260505181530 26 178 0.0 25.7 0.00 0.00 0.00 33 1004.5
20260505180024 26 201 1.6 19.3 0.00 0.00 0.00 37 1004.5
20260505174555 26 169 6.4 24.1 0.00 0.00 0.00 37 1004.7
20260505173057 26 257 4.8 17.7 0.00 0.00 0.00 37 1004.6
20260505171550 26 179 1.6 27.4 0.00 0.00 0.00 35 1004.8
20260505170104 26 207 1.6 16.1 0.00 0.00 0.00 39 1004.8
20260505164547 26 264 0.0 17.7 0.00 0.00 0.00 42 1005.1
20260505163043 25 198 1.6 19.3 0.00 0.00 0.00 37 1005.1
20260505161535 25 205 0.0 24.1 0.00 0.00 0.00 44 1005.4
20260505153027 23 216 0.0 4.8 0.00 0.00 0.00 49 1006.0
20260505151524 23 247 0.0 12.9 0.00 0.00 0.00 46 1006.1
20260505124550 17 146 0.0 1.6 0.00 0.00 0.00 67 1006.6
20260505123045 17 171 0.0 1.6 0.00 0.00 0.00 72 1006.8
20260505121543 16 199 0.0 4.8 0.00 0.00 0.00 74 1006.8
20260505120039 15 254 0.0 1.6 0.00 0.00 0.00 76 1006.8
20260505114538 13 205 0.0 0.0 0.00 0.00 0.00 80 1006.8